Location: São Paulo
(23.5507°S, 46.6334°W)
Time: 06:25:30
(UTC-03:00)

Transit 4A - Pass Details

Date: 24 February 2026
Orbit: 864 x 977 km, 66.8° (Epoch: 11 March)

Event Time Altitude Azimuth Distance (km) Brightness Sun altitude
Rises 01:23:52 0° 227° (SW) 3,477 - -53.5°
Reaches altitude 10° 01:27:15 10° 246° (WSW) 2,520 - -53.1°
Maximum altitude 01:30:49 17° 285° (WNW) 2,060 - -52.7°
Drops below altitude 10° 01:34:22 10° 323° (NW) 2,497 - -52.3°
Sets 01:37:43 0° 343° (NNW) 3,429 - -51.9°
